Weather in Severo-Yeniseysky

Russia / Krasnoyarsk Krai     60°22′26″N   93°01′45″E
temp.,
°C
wind,
m/s
gust,
m/s
humid.,
%
clouds,
%
prec.,
mm/h
press.,
hPa
HPBL,
m
24 may, tue
tue2401:00+10w3780100 0.0 1021425
04:00+6wsw22910 0.0 102330
07:00+10wsw136789 0.0 1023313
10:00+14wsw344299 0.0 10231603
13:00+17wsw353615 0.0 10211961
16:00+17wsw453774 0.0 10211984
19:00+17sw364644 0.0 10201503
22:00+13ssw28625 0.0 1020197
25 may, wed
wed2501:00+10ssw267530 0.0 1020112
04:00+10ssw287764 0.0 1020141
07:00+14wsw3105887 0.0 1019450
10:00+18wsw594993 0.0 10161045
13:00+15w4966100 0.5 10161136
16:00+12wnw399191 6.1 1016675
19:00+13nnw47772 6.7 1015987
22:00+9nw28925 0.1 1017257
26 may, thu
thu2601:00+7nw22945 0.1 101721
04:00+5wnw11945 0.0 101816
07:00+9nw28745 0.0 1019471
10:00+12n45545 0.0 10181429
13:00+15n344197 0.0 10172161
16:00+15nne353990 0.0 10172157
19:00+14nne354593 0.0 10171389
22:00+8nne116713 0.0 101712
27 may, fri
fri2701:00+7ne247913 0.0 1017115
04:00+5ene279611 0.1 1018241
07:00+7ene398290 0.1 1018558
10:00+12ene565280 0.1 10171780
13:00+13ene463895 0.2 10182314
16:00+14ene453695 0.0 10182402
19:00+12ene454610 0.0 10181536
22:00+6e22705 0.0 102024
28 may, sat
sat2801:00+4se22775 0.0 102115
04:00+3se11750 0.0 102210
07:00+8se12545 0.0 1021335
10:00+12ese22375 0.0 10191643
13:00+16sse12305 0.0 10172044
16:00+17s112740 0.0 10152395
19:00+15ese113183 0.0 10142172
22:00+10se2251100 0.0 101517